User: anonymous   Login
Location: *
(37.5724°S, 58.0067°E)
Time: 10:27:36
(UTC+00:00)
Language:

Helios 1A Rocket - Orbit

View from above orbital plane
View from above orbital plane
View from above satellite
View from above satellite

Ground track
Ground track

The orbit data is extracted from the following two-line orbital elements,

1 23608U 95033D   20337.85796199  .00000677  00000-0  63764-4 0  9998
2 23608  98.3136   0.0407 0017033  46.0287 314.2334 14.97469079376645
Epoch (UTC): 02 December 2020 20:35:27
Eccentricity: 0.0017033
inclination: 98.3136°
perigee height: 563 km
apogee height: 586 km
right ascension of ascending node: 0.0407°
argument of perigee: 46.0287°
revolutions per day: 14.97469079
mean anomaly at epoch: 314.2334°
orbit number at epoch: 37664

The dashed part of the orbit path shows where the satellite is in the earth's shadow,  

DLR